When you browse on this site, cookies collect data to enhance your experience and personalize the content and advertising you see.
Visit our Privacy Policy to learn more. By continuing to use the site, you agree to this use of cookies and data.

Tiempo cada hora Fuengirola

Hoy, 23 Septiembre, Miércoles

Tiempo Temperatura Precipitaciones Viento Presión Humedad
00:00 +26°C° 0 mm 4 mps 760 mmHg 45%
01:00 +26°C° 0 mm 4 mps 760 mmHg 45%
02:00 +25°C° 0 mm 3 mps 760 mmHg 45%
03:00 +25°C° 0 mm 3 mps 760 mmHg 46%
04:00 +25°C° 0 mm 3 mps 760 mmHg 45%
05:00 +25°C° 0 mm 3 mps 760 mmHg 43%
06:00 +25°C° 0 mm 2 mps 760 mmHg 42%
07:00 +26°C° 0 mm 3 mps 760 mmHg 41%
08:00 +27°C° 0 mm 3 mps 761 mmHg 41%
09:00 +27°C° 0 mm 4 mps 761 mmHg 40%
10:00 +29°C° 0 mm 4 mps 761 mmHg 38%
11:00 +30°C° 0 mm 4 mps 761 mmHg 36%
12:00 +32°C° 0 mm 4 mps 761 mmHg 34%
13:00 +33°C° 0 mm 4 mps 760 mmHg 34%
14:00 +33°C° 0 mm 5 mps 760 mmHg 34%
15:00 +34°C° 0 mm 5 mps 759 mmHg 33%
16:00 +33°C° 0 mm 5 mps 760 mmHg 37%
17:00 +32°C° 0 mm 5 mps 760 mmHg 41%
18:00 +30°C° 0 mm 5 mps 760 mmHg 44%
19:00 +29°C° 0 mm 5 mps 760 mmHg 47%
20:00 +28°C° 0 mm 4 mps 761 mmHg 51%
21:00 +27°C° 0 mm 4 mps 761 mmHg 54%
22:00 +27°C° 0 mm 3 mps 761 mmHg 56%
23:00 +26°C° 0 mm 3 mps 761 mmHg 58%

Mañana, 24 Septiembre, Jueves

Tiempo Temperatura Precipitaciones Viento Presión Humedad
00:00 +26°C° 0 mm 3 mps 761 mmHg 60%
01:00 +25°C° 0 mm 3 mps 761 mmHg 61%
02:00 +25°C° 0 mm 3 mps 761 mmHg 62%
03:00 +25°C° 0 mm 3 mps 761 mmHg 63%
04:00 +25°C° 0 mm 3 mps 761 mmHg 64%
05:00 +24°C° 0 mm 3 mps 761 mmHg 64%
06:00 +24°C° 0 mm 2 mps 761 mmHg 65%
07:00 +26°C° 0 mm 2 mps 761 mmHg 59%
08:00 +28°C° 0 mm 2 mps 761 mmHg 53%
09:00 +29°C° 0 mm 2 mps 761 mmHg 48%
10:00 +31°C° 0 mm 2 mps 761 mmHg 43%
11:00 +33°C° 0 mm 3 mps 761 mmHg 38%
12:00 +34°C° 0 mm 3 mps 761 mmHg 33%
13:00 +35°C° 0 mm 3 mps 761 mmHg 33%
14:00 +35°C° 0 mm 4 mps 761 mmHg 32%
15:00 +35°C° 0 mm 4 mps 761 mmHg 31%
16:00 +34°C° 0 mm 4 mps 761 mmHg 34%
17:00 +33°C° 0 mm 4 mps 761 mmHg 38%
18:00 +32°C° 0 mm 4 mps 761 mmHg 41%
19:00 +30°C° 0 mm 4 mps 761 mmHg 45%
20:00 +29°C° 0 mm 4 mps 762 mmHg 48%
21:00 +28°C° 0 mm 4 mps 763 mmHg 52%
22:00 +27°C° 0 mm 4 mps 763 mmHg 55%
23:00 +27°C° 0 mm 4 mps 763 mmHg 57%

Pasado mañana, 25 Septiembre, Viernes

Tiempo Temperatura Precipitaciones Viento Presión Humedad
00:00 +26°C° 0 mm 4 mps 763 mmHg 60%
01:00 +26°C° 0 mm 4 mps 763 mmHg 62%
02:00 +25°C° 0 mm 4 mps 763 mmHg 65%
03:00 +25°C° 0 mm 4 mps 763 mmHg 68%
04:00 +25°C° 0 mm 4 mps 763 mmHg 70%
05:00 +23°C° 0 mm 4 mps 764 mmHg 72%
06:00 +23°C° 0 mm 4 mps 764 mmHg 74%
07:00 +25°C° 0 mm 4 mps 764 mmHg 64%
08:00 +27°C° 0 mm 4 mps 764 mmHg 55%
09:00 +28°C° 0 mm 4 mps 765 mmHg 46%
10:00 +29°C° 0 mm 4 mps 765 mmHg 37%
11:00 +32°C° 0 mm 4 mps 765 mmHg 28%
12:00 +33°C° 0 mm 5 mps 765 mmHg 19%
13:00 +33°C° 0 mm 5 mps 764 mmHg 19%
14:00 +33°C° 0 mm 5 mps 764 mmHg 19%
15:00 +33°C° 0 mm 5 mps 764 mmHg 19%
16:00 +30°C° 0 mm 5 mps 764 mmHg 21%
17:00 +29°C° 0 mm 5 mps 764 mmHg 23%
18:00 +28°C° 0 mm 5 mps 764 mmHg 25%
19:00 +27°C° 0 mm 5 mps 764 mmHg 26%
20:00 +26°C° 0 mm 4 mps 765 mmHg 27%
21:00 +25°C° 0 mm 4 mps 765 mmHg 28%
22:00 +23°C° 0 mm 4 mps 765 mmHg 29%
23:00 +22°C° 0 mm 3 mps 765 mmHg 30%

26 Septiembre, Sábado

Tiempo Temperatura Precipitaciones Viento Presión Humedad
00:00 +22°C° 0 mm 3 mps 766 mmHg 30%
01:00 +21°C° 0 mm 3 mps 765 mmHg 33%
02:00 +21°C° 0 mm 3 mps 765 mmHg 36%
03:00 +21°C° 0 mm 3 mps 765 mmHg 38%
04:00 +20°C° 0 mm 3 mps 765 mmHg 44%
05:00 +20°C° 0 mm 3 mps 765 mmHg 50%
06:00 +20°C° 0 mm 4 mps 765 mmHg 56%
07:00 +21°C° 0 mm 4 mps 766 mmHg 54%
08:00 +22°C° 0 mm 4 mps 766 mmHg 52%
09:00 +25°C° 0 mm 4 mps 766 mmHg 49%
10:00 +25°C° 0 mm 4 mps 766 mmHg 49%
11:00 +26°C° 0 mm 4 mps 766 mmHg 49%
12:00 +27°C° 0 mm 4 mps 766 mmHg 49%
13:00 +26°C° 0 mm 3 mps 765 mmHg 51%
14:00 +26°C° 0 mm 3 mps 765 mmHg 52%
15:00 +26°C° 0 mm 3 mps 764 mmHg 53%
16:00 +25°C° 0 mm 2 mps 764 mmHg 57%
17:00 +25°C° 0 mm 1 mps 764 mmHg 61%
18:00 +24°C° 0 mm 1 mps 764 mmHg 65%
19:00 +23°C° 0 mm 1 mps 764 mmHg 67%
20:00 +22°C° 0 mm 1 mps 764 mmHg 69%
21:00 +22°C° 0 mm 1 mps 765 mmHg 71%
22:00 +22°C° 0 mm 1 mps 764 mmHg 71%
23:00 +19°C° 0 mm 0 mps 764 mmHg 70%

27 Septiembre, Domingo

Tiempo Temperatura Precipitaciones Viento Presión Humedad
00:00 +19°C° 0 mm 0 mps 764 mmHg 69%
01:00 +19°C° 0 mm 0 mps 764 mmHg 69%
02:00 +18°C° 0 mm 0 mps 763 mmHg 69%
03:00 +18°C° 0 mm 0 mps 763 mmHg 70%
04:00 +18°C° 0 mm 0 mps 763 mmHg 68%
05:00 +20°C° 0 mm 1 mps 763 mmHg 66%
06:00 +20°C° 0 mm 1 mps 763 mmHg 64%
07:00 +21°C° 0 mm 1 mps 763 mmHg 58%
08:00 +23°C° 0 mm 1 mps 763 mmHg 52%
09:00 +25°C° 0 mm 1 mps 763 mmHg 46%
10:00 +26°C° 0 mm 1 mps 763 mmHg 43%
11:00 +27°C° 0 mm 1 mps 763 mmHg 41%
12:00 +28°C° 0 mm 2 mps 762 mmHg 38%
13:00 +28°C° 0 mm 2 mps 762 mmHg 39%
14:00 +28°C° 0 mm 2 mps 761 mmHg 40%
15:00 +28°C° 0 mm 2 mps 761 mmHg 41%
16:00 +27°C° 0 mm 2 mps 761 mmHg 46%
17:00 +26°C° 0 mm 1 mps 761 mmHg 52%
18:00 +25°C° 0 mm 1 mps 761 mmHg 57%
19:00 +24°C° 0 mm 1 mps 761 mmHg 58%
20:00 +23°C° 0 mm 1 mps 761 mmHg 58%
21:00 +23°C° 0 mm 1 mps 762 mmHg 59%
22:00 +21°C° 0 mm 0 mps 761 mmHg 59%
23:00 +20°C° 0 mm 0 mps 761 mmHg 60%

28 Septiembre, Lunes

Tiempo Temperatura Precipitaciones Viento Presión Humedad
00:00 +20°C° 0 mm 0 mps 761 mmHg 61%
01:00 +20°C° 0 mm 0 mps 761 mmHg 62%
02:00 +19°C° 0 mm 0 mps 761 mmHg 64%
03:00 +21°C° 0 mm 1 mps 760 mmHg 65%
04:00 +21°C° 0 mm 1 mps 760 mmHg 63%
05:00 +20°C° 0 mm 2 mps 760 mmHg 61%
06:00 +20°C° 0 mm 2 mps 760 mmHg 59%
07:00 +23°C° 0 mm 2 mps 760 mmHg 51%
08:00 +25°C° 0 mm 2 mps 760 mmHg 43%
09:00 +27°C° 0 mm 2 mps 761 mmHg 35%
10:00 +28°C° 0 mm 2 mps 760 mmHg 34%
11:00 +29°C° 0 mm 3 mps 760 mmHg 33%
12:00 +29°C° 0 mm 3 mps 760 mmHg 31%
13:00 +29°C° 0 mm 3 mps 760 mmHg 33%
14:00 +29°C° 0 mm 3 mps 759 mmHg 34%
15:00 +28°C° 0 mm 2 mps 759 mmHg 36%
16:00 +27°C° 0 mm 2 mps 759 mmHg 39%
17:00 +26°C° 0 mm 2 mps 759 mmHg 41%
18:00 +26°C° 0 mm 2 mps 759 mmHg 44%
19:00 +25°C° 0 mm 2 mps 759 mmHg 45%
20:00 +25°C° 0 mm 1 mps 759 mmHg 46%
21:00 +24°C° 0 mm 1 mps 759 mmHg 46%
22:00 +24°C° 0 mm 2 mps 759 mmHg 49%
23:00 +23°C° 0 mm 2 mps 759 mmHg 52%
Mostrar más